Temperature
19 18 18 18 18 18 18 18 18 18 18 18 18 18 18 18 18 18 18 18 18 17 17 17 17 17 17 17 17 17 17 17 16 16 16 16 16 16 16 16 16 16 16
19 18 18 18 18 18 18 18 18 18 18 18 18 18 18 18 18 18 18 18 17 17 17 17 17 17 17 17 17 16 16 16 16 16 16 16 16 16 16 16 16 16 16
19 18 18 18 18 18 18 18 18 18 18 18 18 18 18 18 18 18 18 18 17 17 17 17 17 17 17 17 17 17 16 16 16 16 16 16 16 16 16 16 16 16 16
18 18 18 18 18 18 18 18 18 18 18 18 18 18 18 18 18 18 17 17 17 17 17 17 17 17 17 17 17 17 17 16 16 16 16 16 16 16 16 16 16 16 16
18 18 18 18 18 18 18 18 18 18 18 18 18 18 18 18 18 17 17 17 17 17 17 17 17 17 17 17 17 17 17 16 17 16 16 16 16 16 16 16 16 16 16
18 18 18 18 18 18 18 18 17 18 18 17 17 17 17 17 17 17 17 17 17 17 17 17 17 17 17 17 17 17 17 16 16 16 16 16 16 16 16 16 16 16 16
18 18 18 18 18 18 18 18 17 17 17 17 17 17 17 17 17 17 17 17 17 17 17 17 17 17 17 17 17 17 17 17 17 16 16 16 16 16 16 16 16 16 16
18 18 18 18 18 18 18 18 18 17 17 17 17 17 17 17 17 17 17 17 17 17 17 17 17 17 17 17 17 17 17 17 16 16 16 16 16 16 16 16 16 16 16
18 18 18 18 18 18 18 18 17 17 17 17 17 17 17 17 17 17 17 17 17 17 17 17 17 17 17 17 17 17 17 17 17 16 16 16 16 16 16 16 16 16 16
18 18 18 18 18 18 18 18 17 17 17 17 17 17 17 17 16 16 17 17 17 17 17 17 17 17 17 17 17 17 16 16 16 16 16 16 16 16 16 16 15 15 15
18 18 18 18 18 18 17 17 17 17 17 17 17 17 17 16 16 16 16 17 17 17 17 17 17 17 17 17 17 16 16 16 16 16 16 16 16 16 15 15 15 15 15
18 18 18 18 18 18 17 17 17 17 17 17 17 17 16 16 16 16 16 16 16 17 17 17 17 17 17 17 16 16 16 16 16 16 16 16 16 16 15 15 15 15 15
18 18 18 18 18 17 17 17 17 17 17 17 17 16 16 16 16 16 16 16 16 16 16 16 16 16 16 16 16 16 16 16 16 16 16 16 16 16 15 15 15 15 15
18 18 18 17 17 17 17 17 17 17 17 16 16 16 16 16 16 16 16 16 15 15 15 16 16 16 16 16 16 16 16 16 16 16 16 16 15 15 15 15 15 15 15
18 18 17 17 17 17 17 17 17 17 16 16 16 16 16 16 16 16 16 16 16 15 15 15 15 16 15 15 16 16 16 15 15 15 15 15 15 15 15 15 15 15 15
18 17 17 17 17 17 16 16 16 16 16 16 16 16 16 16 16 16 16 15 15 15 15 15 15 15 15 15 15 15 15 15 15 15 15 15 15 15 15 15 15 15 15
17 17 17 17 17 16 16 16 16 16 16 16 16 16 16 15 15 15 15 15 15 15 15 15 15 15 15 15 15 15 15 15 15 15 15 15 15 15 15 15 15 15 14
17 17 17 17 17 17 16 16 16 16 16 16 15 15 15 15 15 15 15 15 15 15 15 14 14 14 14 14 14 14 14 14 14 14 14 14 14 14 14 14 14 14 14
17 17 17 17 16 16 16 16 16 16 15 15 15 15 15 15 15 15 15 14 14 14 14 14 14 14 14 14 14 14 14 14 14 14 14 14 14 14 14 14 14 14 14
17 17 16 16 16 16 16 16 16 16 15 15 15 15 15 15 14 14 14 14 14 14 14 14 14 14 14 14 14 14 14 14 14 14 14 14 14 14 14 14 13 13 13
16 16 16 16 16 16 16 16 15 15 15 15 15 15 14 14 14 14 14 14 14 13 13 13 13 13 13 13 13 13 13 13 13 13 13 13 13 13 13 13 13 13 13
16 16 16 16 16 15 15 15 15 15 15 15 14 14 14 14 14 14 13 13 13 13 13 13 13 13 13 13 13 12 12 13 13 13 13 13 12 13 13 13 12 12 12
16 16 16 16 15 15 15 15 15 15 14 14 14 14 14 13 13 13 13 13 13 13 13 13 13 12 12 12 12 12 12 12 12 12 12 12 12 12 12 12 12 12 12
16 16 16 15 15 15 15 15 14 14 14 14 14 14 14 13 13 13 13 13 13 13 12 12 12 12 12 12 12 12 12 12 12 12 12 12 12 12 12 12 12 12 12
16 16 15 15 15 15 15 14 14 14 14 14 14 14 13 13 13 13 13 13 12 12 12 12 12 12 11 11 11 11 11 11 11 11 11 11 11 11 11 11 11 11 11
16 15 15 15 15 15 14 14 14 14 14 14 13 13 13 13 13 13 13 12 12 12 12 12 11 11 11 11 11 11 11 11 11 11 11 11 11 11 11 11 11 11 11
Wind_Speed
1 1 1 1 1 1 1 1 1 1 1 1 1 1 1 2 2 3 3 5 7 8 8 8 8 8 9 10 9 9 8 8 9 9 9 9 9 9 9 9 10 11 11
1 1 1 1 0 0 1 1 1 1 0 0 0 0 1 2 2 2 2 3 5 7 8 8 8 9 9 9 9 9 8 8 8 9 9 9 9 9 9 10 10 11 12
2 1 1 0 0 0 1 1 1 1 1 1 1 0 1 1 2 2 2 2 3 5 7 8 8 9 9 9 9 9 9 8 8 8 8 8 9 9 9 9 10 10 11
2 2 1 0 0 1 1 1 1 1 1 1 1 0 0 0 1 1 1 2 3 3 5 7 8 8 9 9 9 9 9 10 9 9 9 9 9 9 10 10 10 10 10
2 2 1 0 1 1 1 1 1 1 1 1 1 0 0 0 0 1 1 2 2 2 3 5 7 7 8 8 9 9 10 10 10 9 9 9 9 10 10 11 11 11 11
2 2 1 1 1 1 1 1 2 2 1 1 1 1 1 1 0 0 1 1 1 2 2 3 4 5 7 7 8 8 9 9 9 9 9 9 9 9 9 10 10 11 11
2 2 1 1 1 1 1 1 1 2 2 1 2 2 2 2 1 0 0 1 0 1 2 2 3 3 4 5 6 7 8 7 7 7 8 9 10 10 9 10 10 11 11
1 1 2 1 1 1 1 1 2 1 1 1 1 1 2 3 2 1 0 0 0 0 1 2 2 3 3 3 4 5 7 7 7 7 7 8 9 9 9 10 10 11 11
1 1 1 1 1 1 1 1 2 2 1 1 1 2 1 1 2 2 1 1 1 0 1 1 1 2 3 3 3 4 6 7 7 7 7 7 7 8 8 9 10 10 11
1 1 1 1 1 1 1 1 1 1 2 1 1 1 1 2 1 1 2 2 2 1 2 2 2 2 2 3 3 4 5 6 6 6 7 7 7 7 8 9 9 9 10
1 0 1 1 1 1 1 1 1 1 1 2 1 1 1 1 1 1 2 3 2 2 2 2 2 2 3 3 3 4 5 5 5 5 6 6 7 7 8 9 10 10 10
0 0 1 1 1 1 1 1 1 2 1 1 1 1 1 1 1 1 2 2 2 3 2 1 1 2 2 3 4 5 4 4 4 4 5 6 6 6 7 7 9 9 10
1 1 1 1 1 1 1 1 2 1 1 1 1 1 1 1 1 2 1 1 2 2 2 1 2 2 2 2 3 4 3 3 3 3 3 4 4 5 5 6 6 7 7
2 1 2 2 1 1 1 2 2 1 1 1 1 1 1 1 1 2 2 2 1 1 1 2 2 2 2 2 3 2 2 2 2 2 3 3 3 4 5 5 5 5 6
2 2 2 2 1 1 1 2 2 1 1 1 1 1 1 0 1 1 2 3 2 1 2 2 1 2 2 2 3 2 2 2 2 2 3 3 3 3 4 4 3 3 3
2 2 2 2 2 1 1 2 1 1 1 0 0 1 0 0 0 0 1 1 2 2 2 2 2 2 3 3 4 2 2 3 2 1 1 2 2 2 1 2 2 3 3
3 3 2 2 2 2 2 2 1 1 1 0 0 1 0 0 0 0 0 1 1 1 2 2 1 2 2 3 3 3 3 2 3 3 1 1 0 1 1 1 1 1 1
3 3 3 2 1 1 1 2 2 1 2 1 0 1 0 0 1 0 0 0 0 1 2 2 2 2 2 2 3 3 3 2 2 4 2 2 1 1 1 0 0 1 1
2 2 2 2 2 2 2 2 2 2 1 1 1 1 1 1 0 0 1 0 0 0 1 1 1 1 1 2 3 3 3 3 3 3 3 2 1 1 1 1 0 1 1
3 3 3 3 3 2 2 2 2 1 1 1 1 1 1 2 2 1 1 1 1 1 1 1 0 1 1 2 1 2 3 3 3 3 3 2 2 1 1 0 1 1 1
3 3 3 2 2 2 2 2 3 2 2 1 1 1 1 1 2 2 2 2 2 1 1 1 0 1 1 1 1 2 2 2 2 2 2 3 2 1 1 1 1 0 1
2 2 3 3 3 3 3 4 4 2 2 2 1 1 1 1 1 2 2 3 4 3 2 1 1 1 2 2 1 1 1 1 2 2 2 2 1 1 1 1 1 1 2
3 3 3 4 4 4 4 4 4 3 3 2 2 2 2 1 1 1 1 1 1 2 4 3 3 3 3 3 2 2 2 1 2 2 1 1 1 2 2 1 1 1 1
3 4 4 4 4 4 5 6 5 4 3 3 4 4 3 3 3 3 2 1 1 2 3 3 4 4 4 3 3 3 3 2 2 1 0 1 1 2 2 2 1 1 1
4 3 3 4 5 5 5 6 5 3 3 4 4 4 4 4 5 5 3 2 2 3 2 3 3 3 3 3 3 1 1 0 1 1 0 1 1 2 2 2 2 1 1
4 4 4 4 5 5 5 6 6 4 4 4 3 4 5 5 5 6 5 4 4 3 2 2 2 2 2 2 3 3 3 2 1 1 1 1 1 1 1 1 1 2 1
Wind_Direction
103 67 27 48 53 63 83 81 75 62 70 81 133 159 172 182 188 197 215 214 208 202 203 205 209 210 208 207 210 211 215 215 213 210 211 215 220 222 219 218 216 214 214
132 105 66 53 41 51 113 115 89 69 49 85 75 108 183 191 205 211 221 218 212 205 206 210 212 215 213 213 212 211 216 219 222 220 219 219 220 220 220 221 219 217 216
162 148 118 69 9 178 97 87 68 75 74 81 89 118 173 192 207 221 228 216 218 216 216 216 216 216 218 221 219 222 223 223 225 224 222 220 219 217 219 220 221 219 216
174 153 125 124 167 114 98 92 73 80 65 74 73 345 337 186 210 200 198 208 217 228 223 221 222 222 224 225 225 229 229 228 228 229 226 223 225 224 222 220 219 220 218
177 153 158 168 121 100 83 75 74 102 96 62 69 33 12 207 235 170 173 202 212 222 229 228 226 228 230 231 233 233 234 235 235 231 229 228 230 228 225 222 220 221 221
178 155 143 111 108 93 63 70 80 77 95 66 62 33 11 359 47 120 186 164 180 205 225 239 235 236 236 239 240 239 242 244 242 233 229 230 231 230 227 227 226 223 224
168 146 141 117 113 120 138 127 111 87 70 81 77 29 16 34 56 63 97 117 163 201 206 229 239 241 244 249 251 248 248 246 241 234 229 230 232 232 232 232 231 229 228
155 154 157 156 136 132 105 123 139 130 89 88 109 74 7 5 13 22 47 128 158 186 211 225 226 239 243 242 251 251 253 250 241 239 233 229 230 232 233 233 232 232 231
122 130 145 150 145 150 164 183 168 155 164 71 98 131 141 242 318 352 4 2 356 284 265 254 235 244 239 239 251 260 259 258 245 240 234 234 232 232 233 234 235 231 229
82 118 133 148 147 145 166 205 169 163 158 164 105 103 156 164 174 323 339 343 340 316 289 277 277 258 250 241 247 262 270 260 245 239 235 236 236 235 235 236 239 237 234
20 74 126 136 154 169 182 180 147 150 161 162 157 150 116 82 149 186 282 321 339 327 307 285 282 280 268 255 257 269 274 266 245 236 237 236 238 243 244 243 243 241 239
334 16 130 144 157 162 170 175 154 135 141 146 149 147 156 168 192 190 232 287 310 321 325 313 301 291 281 273 267 273 271 268 244 232 236 236 237 243 250 252 245 243 240
208 234 163 155 159 157 134 120 108 114 133 145 163 175 182 203 185 176 186 256 291 312 328 335 318 317 311 301 286 287 278 271 234 222 228 229 236 241 245 246 245 241 243
207 188 152 140 125 105 109 111 111 108 105 126 143 146 158 197 186 187 185 184 277 312 321 306 332 348 333 320 313 299 295 280 255 227 229 234 237 241 241 237 237 238 241
185 155 146 131 112 102 116 124 118 108 107 117 153 146 155 222 202 216 196 189 187 233 274 287 312 331 333 341 346 341 315 311 299 246 233 237 242 245 246 238 235 222 215
170 152 142 135 127 123 122 116 118 117 109 76 179 133 111 283 194 156 184 210 202 194 231 259 278 316 338 347 358 356 330 334 340 309 242 253 259 241 221 219 228 205 197
164 167 165 150 147 151 142 131 139 135 125 67 28 129 117 227 135 107 134 139 157 177 216 273 295 329 344 351 350 356 356 345 351 2 27 54 73 148 188 233 246 205 203
169 168 163 159 166 160 168 169 188 181 169 178 201 133 176 151 99 101 110 91 167 192 192 239 285 316 325 335 334 340 354 2 3 8 17 24 48 57 45 22 184 161 166
179 176 172 180 193 194 195 198 187 191 188 201 208 196 211 153 140 136 120 94 27 116 155 194 265 327 322 337 337 342 358 355 358 354 348 344 341 337 359 36 111 159 168
186 186 186 196 202 201 203 204 186 181 189 219 218 206 203 188 192 191 174 171 139 118 114 144 257 320 304 318 342 333 340 347 343 352 1 6 352 327 305 283 93 96 186
190 189 188 199 209 207 212 198 192 188 188 207 235 228 211 198 191 183 172 174 154 143 147 166 248 314 313 324 319 308 309 323 332 354 353 359 352 342 323 297 224 168 113
182 181 199 206 213 223 215 199 186 188 195 202 226 255 254 223 203 181 175 172 164 169 183 187 224 246 267 266 281 297 298 321 311 340 338 332 350 328 319 288 343 157 153
189 196 212 214 222 228 211 204 195 187 197 214 221 233 246 242 214 193 164 141 188 192 188 193 212 236 246 242 241 259 257 260 262 293 293 303 328 326 321 326 350 112 153
206 212 218 220 224 231 209 201 197 194 206 225 228 225 223 233 222 192 183 201 249 249 238 224 223 239 247 236 223 232 243 260 288 298 282 276 313 312 328 321 353 34 360
217 221 221 223 224 236 216 203 193 193 215 236 237 230 221 225 220 195 183 206 260 277 263 229 232 249 255 231 192 174 188 203 286 284 262 261 296 302 311 323 328 357 4
215 218 228 230 225 231 226 211 195 198 217 236 244 240 230 223 218 198 196 204 233 256 264 286 294 296 281 256 193 202 205 207 229 261 228 224 284 337 309 308 324 337 340
Height
1523 1523 1523 1523 1524 1524 1525 1525 1526 1527 1528 1529 1529 1530 1531 1532 1532 1533 1533 1534 1534 1535 1536 1537 1537 1538 1539 1541 1542 1543 1544 1545 1546 1547 1548 1549 1550 1552 1553 1554 1555 1556 1558
1524 1524 1524 1524 1525 1525 1525 1526 1527 1527 1528 1529 1529 1530 1531 1531 1532 1533 1533 1533 1534 1535 1536 1536 1536 1537 1538 1539 1540 1541 1542 1543 1544 1545 1546 1548 1549 1550 1550 1552 1553 1554 1556
1525 1525 1525 1525 1526 1526 1526 1526 1527 1527 1528 1529 1529 1530 1531 1531 1532 1532 1532 1533 1533 1534 1535 1535 1536 1537 1537 1538 1539 1540 1541 1541 1542 1543 1544 1545 1546 1547 1548 1549 1550 1552 1553
1526 1526 1526 1526 1526 1526 1526 1526 1527 1527 1528 1528 1529 1530 1530 1531 1531 1531 1532 1532 1533 1533 1534 1534 1535 1536 1536 1537 1538 1538 1539 1539 1540 1541 1542 1543 1544 1545 1546 1547 1548 1549 1550
1526 1526 1526 1526 1526 1526 1526 1526 1526 1527 1527 1528 1529 1529 1530 1530 1530 1531 1531 1531 1532 1532 1533 1533 1534 1534 1535 1536 1536 1537 1537 1537 1538 1539 1539 1540 1541 1542 1543 1544 1545 1546 1547
1526 1526 1526 1526 1526 1526 1526 1526 1526 1527 1527 1528 1528 1529 1529 1529 1530 1530 1530 1531 1531 1531 1532 1532 1533 1533 1534 1534 1535 1535 1535 1536 1536 1536 1537 1538 1539 1539 1540 1541 1542 1543 1544
1526 1527 1527 1526 1527 1526 1526 1526 1526 1526 1527 1527 1528 1528 1528 1528 1528 1529 1529 1530 1530 1530 1531 1531 1531 1532 1532 1532 1533 1533 1533 1533 1533 1533 1534 1535 1536 1537 1537 1538 1539 1540 1541
1526 1526 1526 1526 1526 1526 1526 1526 1526 1526 1527 1527 1527 1527 1528 1529 1528 1528 1528 1529 1529 1529 1530 1530 1530 1530 1530 1531 1531 1531 1531 1531 1531 1531 1532 1532 1533 1534 1534 1535 1536 1536 1537
1526 1526 1526 1526 1526 1526 1526 1526 1526 1526 1526 1527 1527 1528 1527 1527 1527 1527 1527 1528 1528 1528 1528 1529 1529 1529 1529 1529 1529 1529 1529 1528 1528 1528 1529 1530 1530 1531 1531 1532 1533 1533 1534
1525 1525 1526 1526 1526 1526 1526 1526 1526 1526 1526 1526 1526 1526 1527 1526 1526 1526 1527 1527 1527 1527 1527 1527 1527 1527 1527 1527 1527 1527 1526 1526 1525 1526 1526 1527 1527 1528 1528 1529 1529 1530 1530
1524 1525 1525 1525 1525 1525 1525 1525 1525 1525 1525 1525 1525 1525 1525 1525 1525 1525 1525 1525 1525 1526 1526 1526 1526 1526 1526 1525 1525 1524 1524 1523 1523 1523 1523 1524 1524 1525 1525 1525 1526 1526 1527
1523 1523 1524 1524 1524 1524 1524 1524 1524 1525 1524 1524 1524 1524 1524 1524 1524 1524 1524 1523 1523 1524 1524 1524 1524 1524 1524 1523 1523 1522 1522 1521 1521 1521 1521 1521 1521 1521 1521 1522 1522 1522 1523
1522 1522 1523 1523 1523 1523 1523 1523 1524 1523 1523 1523 1523 1523 1523 1523 1523 1523 1523 1522 1522 1522 1522 1522 1522 1522 1521 1521 1521 1520 1520 1519 1518 1518 1518 1518 1518 1518 1518 1518 1518 1518 1519
1520 1521 1521 1522 1522 1522 1522 1522 1522 1522 1522 1522 1522 1522 1522 1522 1522 1522 1522 1521 1520 1520 1520 1520 1520 1519 1519 1519 1518 1518 1517 1517 1515 1515 1515 1515 1515 1515 1515 1515 1515 1515 1515
1519 1520 1520 1521 1521 1521 1521 1521 1521 1521 1521 1521 1521 1521 1521 1521 1520 1520 1520 1520 1520 1519 1518 1518 1518 1517 1517 1517 1517 1516 1515 1515 1514 1513 1513 1512 1512 1512 1511 1512 1512 1512 1512
1518 1519 1519 1519 1520 1520 1520 1520 1520 1520 1520 1520 1520 1519 1519 1519 1518 1518 1518 1518 1518 1518 1517 1516 1516 1516 1515 1515 1515 1514 1513 1512 1512 1511 1510 1510 1509 1509 1509 1509 1509 1509 1509
1516 1517 1518 1518 1518 1518 1518 1518 1518 1518 1518 1518 1518 1518 1517 1517 1517 1516 1516 1516 1515 1515 1514 1514 1514 1514 1513 1513 1512 1512 1511 1510 1509 1509 1508 1508 1507 1507 1507 1507 1506 1506 1506
1515 1515 1516 1516 1516 1516 1516 1516 1516 1516 1516 1516 1516 1516 1515 1515 1515 1514 1514 1513 1513 1513 1512 1511 1511 1511 1511 1510 1510 1510 1509 1508 1507 1507 1506 1506 1505 1505 1504 1504 1504 1504 1504
1512 1513 1514 1514 1514 1514 1514 1515 1515 1515 1514 1514 1514 1513 1513 1513 1512 1512 1512 1511 1511 1511 1510 1510 1509 1509 1508 1508 1507 1507 1507 1506 1505 1505 1504 1504 1503 1503 1502 1502 1502 1502 1502
1510 1510 1511 1512 1512 1512 1512 1512 1512 1513 1512 1512 1512 1511 1511 1511 1510 1510 1510 1509 1509 1508 1508 1508 1507 1506 1506 1505 1505 1504 1504 1503 1503 1502 1502 1501 1501 1500 1500 1500 1499 1499 1499
1508 1508 1509 1509 1510 1510 1510 1510 1510 1510 1510 1510 1510 1509 1509 1509 1508 1508 1508 1507 1507 1506 1506 1505 1505 1504 1503 1503 1502 1502 1501 1501 1500 1500 1500 1499 1499 1498 1497 1497 1497 1497 1497
1505 1506 1506 1507 1507 1507 1507 1507 1507 1507 1507 1507 1507 1507 1507 1507 1506 1506 1506 1505 1505 1504 1504 1503 1502 1502 1501 1501 1501 1500 1499 1499 1498 1498 1498 1497 1497 1496 1496 1495 1495 1495 1495
1502 1502 1503 1503 1503 1503 1504 1504 1504 1504 1504 1504 1505 1505 1504 1504 1504 1504 1504 1503 1503 1502 1502 1502 1501 1500 1500 1499 1499 1498 1498 1497 1496 1496 1496 1495 1495 1494 1494 1493 1493 1493 1493
1499 1499 1499 1499 1499 1500 1500 1501 1501 1501 1501 1501 1502 1502 1502 1502 1502 1502 1501 1501 1500 1500 1500 1499 1499 1498 1498 1497 1497 1496 1496 1495 1495 1494 1494 1493 1493 1493 1492 1492 1492 1491 1491
1496 1496 1496 1496 1496 1496 1497 1498 1498 1498 1498 1498 1499 1499 1499 1499 1499 1499 1499 1498 1498 1498 1497 1497 1497 1496 1496 1495 1494 1493 1493 1492 1491 1491 1491 1491 1490 1490 1490 1490 1490 1490 1490
1492 1492 1492 1493 1493 1492 1493 1494 1494 1494 1495 1495 1495 1496 1496 1496 1496 1496 1496 1495 1495 1495 1495 1494 1494 1494 1493 1492 1491 1490 1490 1490 1489 1489 1489 1489 1488 1488 1488 1488 1488 1488 1487